Weather History for Fort Collins, CO

Change the Weather History Date:

Tuesday, August 7, 2012

  Actual Average Record
Temperature  
Mean Temperature 78 °F -  
Max Temperature 93 °F 83 °F 95 °F (2010)
Min Temperature 62 °F 55 °F 51 °F (1996)
Cooling Degree Days 12    
Growing Degree Days 28 (Base 50)    
Moisture  
Dew Point 46 °F    
Average Humidity 36    
Maximum Humidity 68    
Minimum Humidity 15    
Precipitation  
Precipitation 0.00 in - - ()
Sea Level Pressure  
Sea Level Pressure 30.22 in    
Wind  
Wind Speed 5 mph (North)    
Max Wind Speed 23 mph    
Max Gust Speed 37 mph    
Visibility 10 miles    
Events      
Averages and records for this station are not official NWS values.
T = Trace of Precipitation, MM = Missing Value Source: NWS Daily Summary

Daily Weather History Graph

Daily Weather History Graph

Search for Another Location

Airport:

Trip Planner

Search our weather history database for the weather conditions in past years. The results will help you decide how hot, cold, wet, or windy it might be!

Date:

Astronomy

Aug. 07, 2012 Rise Set
Actual Time 6:03 AM MDT 8:07 PM MDT
Civil Twilight 5:33 AM MDT 8:37 PM MDT
Nautical Twilight 4:56 AM MDT 9:13 PM MDT
Astronomical Twilight 4:17 AM MDT 9:53 PM MDT
Moon 10:47 PM MDT (8/7) 11:55 AM MDT (8/7)
Length of Visible Light 15h 03m
Length of Day
14h 03m
Waning Gibbous, 69% of the Moon is Illuminated
Aug 7
Waning Gibbous
Aug 9
Last Quarter
Aug 17
New
Aug 24
First Quarter
Aug 31
Full

Hourly Weather History & Observations

Time (MDT) Temp. Dew Point Humidity Pressure Visibility Wind Dir Wind Speed Gust Speed Precip Events Conditions
12:15 AM 73.4 °F 48.2 °F 41% 30.26 in 10.0 mi East 4.6 mph - N/A   Clear
12:35 AM 73.4 °F 48.2 °F 41% 30.26 in 10.0 mi SSE 4.6 mph - N/A   Clear
12:55 AM 71.6 °F 48.2 °F 43% 30.26 in 10.0 mi Calm Calm - N/A   Clear
1:15 AM 71.6 °F 48.2 °F 43% 30.26 in 10.0 mi South 3.5 mph - N/A   Clear
1:35 AM 71.6 °F 48.2 °F 43% 30.25 in 10.0 mi Calm Calm - N/A   Clear
1:55 AM 69.8 °F 48.2 °F 46% 30.24 in 10.0 mi WNW 4.6 mph - N/A   Clear
2:15 AM 68.0 °F 46.4 °F 46% 30.24 in 10.0 mi NW 5.8 mph - N/A   Clear
2:35 AM 69.8 °F 48.2 °F 46% 30.23 in 10.0 mi North 3.5 mph - N/A   Clear
2:55 AM 64.4 °F 46.4 °F 52% 30.22 in 10.0 mi NW 4.6 mph - N/A   Clear
3:15 AM 64.4 °F 48.2 °F 56% 30.22 in 10.0 mi North 6.9 mph - N/A   Clear
3:35 AM 64.4 °F 51.8 °F 64% 30.22 in 10.0 mi North 8.1 mph - N/A   Clear
3:55 AM 64.4 °F 51.8 °F 64% 30.22 in 10.0 mi North 9.2 mph - N/A   Clear
4:15 AM 64.4 °F 50.0 °F 59% 30.22 in 10.0 mi North 5.8 mph - N/A   Clear
4:35 AM 64.4 °F 50.0 °F 59% 30.21 in 10.0 mi NNE 4.6 mph - N/A   Clear
4:55 AM 64.4 °F 50.0 °F 59% 30.21 in 10.0 mi NNW 4.6 mph - N/A   Clear
5:15 AM 62.6 °F 48.2 °F 59% 30.22 in 10.0 mi Calm Calm - N/A   Clear
5:35 AM 64.4 °F 48.2 °F 56% 30.22 in 10.0 mi Calm Calm - N/A   Clear
5:55 AM 62.6 °F 51.8 °F 68% 30.22 in 10.0 mi SSW 3.5 mph - N/A   Clear
6:15 AM 62.6 °F 51.8 °F 68% 30.23 in 10.0 mi SSE 5.8 mph - N/A   Clear
6:35 AM 62.6 °F 50.0 °F 63% 30.24 in 10.0 mi SSE 6.9 mph - N/A   Clear
6:55 AM 64.4 °F 51.8 °F 64% 30.24 in 10.0 mi SSE 5.8 mph - N/A   Clear
7:15 AM 66.2 °F 51.8 °F 60% 30.25 in 10.0 mi SSE 3.5 mph - N/A   Clear
7:35 AM 69.8 °F 50.0 °F 49% 30.25 in 10.0 mi ESE 4.6 mph - N/A   Clear
7:55 AM 71.6 °F 50.0 °F 46% 30.25 in 10.0 mi SE 3.5 mph - N/A   Clear
8:15 AM 73.4 °F 50.0 °F 44% 30.25 in 10.0 mi East 3.5 mph - N/A   Clear
8:35 AM 75.2 °F 50.0 °F 41% 30.26 in 10.0 mi ESE 4.6 mph - N/A   Clear
8:55 AM 75.2 °F 48.2 °F 38% 30.26 in 10.0 mi Calm Calm - N/A   Clear
9:15 AM 77.0 °F 50.0 °F 39% 30.25 in 10.0 mi South 5.8 mph - N/A   Clear
9:35 AM 78.8 °F 51.8 °F 39% 30.25 in 10.0 mi Calm Calm - N/A   Clear
9:55 AM 78.8 °F 51.8 °F 39% 30.25 in 10.0 mi Calm Calm - N/A   Clear
10:15 AM 80.6 °F 51.8 °F 37% 30.24 in 10.0 mi SW 5.8 mph - N/A   Clear
10:35 AM 82.4 °F 51.8 °F 35% 30.24 in 7.0 mi South 5.8 mph - N/A   Clear
10:55 AM 84.2 °F 48.2 °F 29% 30.24 in 9.0 mi South 4.6 mph - N/A   Clear
11:35 AM 89.6 °F 48.2 °F 24% 30.23 in 9.0 mi ENE 6.9 mph - N/A   Clear
11:55 AM 89.6 °F 46.4 °F 22% 30.22 in 4.0 mi NE 4.6 mph - N/A   Clear
12:15 PM 89.6 °F 46.4 °F 22% 30.22 in 7.0 mi North 5.8 mph - N/A   Clear
12:35 PM 87.8 °F 46.4 °F 24% 30.21 in 9.0 mi NNW 3.5 mph - N/A   Clear
12:55 PM 89.6 °F 48.2 °F 24% 30.21 in 10.0 mi NNE 3.5 mph - N/A   Clear
1:15 PM 89.6 °F 42.8 °F 20% 30.20 in 10.0 mi WSW 13.8 mph 29.9 mph N/A   Scattered Clouds
1:35 PM 89.6 °F 42.8 °F 20% 30.18 in 8.0 mi North 6.9 mph - N/A   Scattered Clouds
1:55 PM 91.4 °F 44.6 °F 20% 30.18 in 10.0 mi West 6.9 mph - N/A   Clear
2:15 PM 91.4 °F 46.4 °F 21% 30.18 in 10.0 mi NE 8.1 mph 21.9 mph N/A   Partly Cloudy
2:35 PM 91.4 °F 46.4 °F 21% 30.18 in 10.0 mi NNE 9.2 mph - N/A   Scattered Clouds
2:55 PM 91.4 °F 44.6 °F 20% 30.17 in 10.0 mi ENE 6.9 mph - N/A   Partly Cloudy
3:15 PM 89.6 °F 44.6 °F 21% 30.17 in 10.0 mi NNE 4.6 mph - N/A   Scattered Clouds
3:35 PM 93.2 °F 44.6 °F 19% 30.18 in 10.0 mi North 23.0 mph 35.7 mph N/A   Partly Cloudy
3:55 PM 89.6 °F 39.2 °F 17% 30.17 in 10.0 mi NNW 9.2 mph 28.8 mph N/A   Partly Cloudy
4:15 PM 93.2 °F 42.8 °F 17% 30.17 in 10.0 mi North 10.4 mph 36.8 mph N/A   Clear
4:35 PM 93.2 °F 44.6 °F 19% 30.16 in 9.0 mi East 4.6 mph - N/A   Clear
4:55 PM 91.4 °F 39.2 °F 16% 30.16 in 10.0 mi WNW 5.8 mph - N/A   Clear
5:15 PM 89.6 °F 39.2 °F 17% 30.16 in 10.0 mi WNW 13.8 mph 19.6 mph N/A   Clear
5:35 PM 89.6 °F 37.4 °F 16% 30.16 in 10.0 mi WNW 13.8 mph - N/A   Clear
6:35 PM 91.4 °F 37.4 °F 15% 30.15 in 10.0 mi WNW 6.9 mph - N/A   Clear
6:55 PM 89.6 °F 39.2 °F 17% 30.15 in 10.0 mi West 6.9 mph - N/A   Clear
7:15 PM 87.8 °F 41.0 °F 19% 30.15 in 10.0 mi NW 5.8 mph - N/A   Clear
7:35 PM 86.0 °F 39.2 °F 19% 30.16 in 10.0 mi NE 6.9 mph - N/A   Clear
8:55 PM 78.8 °F 44.6 °F 30% 30.20 in 10.0 mi WNW 5.8 mph - N/A   Clear
9:15 PM 75.2 °F 42.8 °F 31% 30.21 in 10.0 mi NNW 6.9 mph - N/A   Clear
9:55 PM 73.4 °F 39.2 °F 29% 30.23 in 10.0 mi NNW 9.2 mph - N/A   Clear
10:15 PM 73.4 °F 39.2 °F 29% 30.24 in 10.0 mi North 8.1 mph - N/A   Clear
10:35 PM 73.4 °F 37.4 °F 27% 30.25 in 10.0 mi NNE 11.5 mph - N/A   Clear
10:55 PM 71.6 °F 37.4 °F 29% 30.26 in 10.0 mi NNE 6.9 mph - N/A   Clear
11:15 PM 69.8 °F 39.2 °F 33% 30.27 in 10.0 mi NNE 6.9 mph - N/A   Clear
11:35 PM 68.0 °F 39.2 °F 35% 30.27 in 10.0 mi North 6.9 mph - N/A   Clear
11:55 PM 66.2 °F 41.0 °F 40% 30.27 in 10.0 mi North 6.9 mph - N/A   Clear